[[{"header":{"parameterUnit":"m.s-1","parameterCategory":1,"la1":30.2991,"la2":30.254,"lo1":-89.0895,"lo2":-89.0444,"dy":0.0017,"dx":0.0017,"nx":28,"ny":28,"refTime":"2023-09-07T21:00:00:Z","depth":0,"parameterNumber":2,"parameterNumberName":"U-component_of_WINDS"},"data":[0,0,0,0,0,0,0,0,0,0,0,0,0,0,0,0,0,0,0,0,0,0,0,0,0,0,0,0,0,0,0,0,0,0,0,0,0,0,0,0,0,0,0,0,0,0,0,0,0,0,0,0,0,0,0,0,0,0,1.7451,1.7452,0,1.7543,1.7544,1.7545,1.7539,1.7537,1.7536,1.7535,1.7633,1.7637,1.764,0,0,0,0,0,0,0,0,0,0,0,0,0,1.7272,1.7275,1.7451,1.7452,1.7453,1.7543,1.7544,1.7546,1.7539,1.7537,1.7536,1.7534,1.7632,1.7636,1.7641,0,0,0,0,0,0,0,0,0,0,0,0,0,1.7356,1.7277,1.7451,1.7461,1.7463,1.7543,1.7544,1.7546,1.7539,1.7537,1.7535,1.7533,1.763,1.7636,1.7641,1.7719,0,0,1.7659,1.7662,0,0,0,0,0,0,0,0,1.7351,1.7362,1.7458,1.746,1.7462,1.7527,1.7517,1.7604,1.754,1.751,1.7535,1.7532,1.76,1.7608,1.763,1.7723,1.7728,1.766,1.7663,1.7666,1.7668,0,0,0,0,0,0,0,1.7345,1.7358,1.7488,1.746,1.7462,1.7461,1.7471,1.7534,1.7566,1.7513,1.7512,1.7523,1.76,1.7624,1.7632,1.7729,1.766,1.7665,1.7668,1.7671,1.7889,1.7891,0,0,0,0,0,0,1.7337,1.7354,1.7485,1.749,1.74,1.7466,1.7477,1.7509,1.7565,1.7571,1.7525,1.7523,1.7615,1.7625,1.7635,1.7728,1.7666,1.7671,1.7675,1.7886,1.7889,1.7891,0,0,0,0,0,0,1.7333,1.7349,1.7481,1.7422,1.7439,1.7472,1.7507,1.7512,1.7535,1.7574,1.758,1.7543,1.7614,1.7627,1.7697,1.7731,1.7674,1.7679,1.7884,1.7887,1.789,1.7914,0,0,0,0,0,0,1.7328,1.7347,1.7376,1.7423,1.7442,1.7541,1.7509,1.7515,1.7545,1.7543,1.7593,1.7599,1.7613,1.7689,1.7703,1.7738,1.7684,1.7881,1.7885,1.7889,1.791,1.7918,1.7924,0,0,0,0,0,1.7321,1.7381,1.7378,1.7394,1.7479,1.7543,1.7554,1.7568,1.7548,1.7577,1.7602,1.7597,1.7725,1.7696,1.7712,1.7749,1.7879,1.7884,1.7889,1.7907,1.7916,1.7924,0,0,0,0,0,0,1.7339,1.7387,1.7384,1.746,1.7497,1.7541,1.7579,1.7578,1.7622,1.7618,1.7635,1.7647,1.7717,1.7741,1.7707,1.7826,1.7799,1.7808,1.7808,1.7817,1.7823,1.7816,1.7689,0,0,0,0,0,1.7352,1.7399,1.7438,1.7502,1.752,1.7546,1.7575,1.7582,1.7622,1.7638,1.7668,1.7707,1.7756,1.7788,1.7835,1.7914,1.7924,1.7948,1.7954,1.796,1.7967,1.8008,1.8018,1.7908,1.7908,1.7908,0,0,1.7379,1.7411,1.7439,1.7506,1.7535,1.7583,1.756,1.7613,1.7648,1.7647,1.7713,1.7737,1.7782,1.7856,1.789,1.7878,1.7999,1.7967,1.7971,1.7975,1.8014,1.8025,1.8034,1.7912,1.7911,1.7911,0,0,1.7452,1.7481,1.7536,1.7565,1.761,1.7627,1.764,1.7684,1.7699,1.7766,1.7764,1.7808,1.7893,1.7924,1.7951,1.8034,1.8031,1.8049,1.8085,1.8125,1.8134,1.8141,1.8169,1.8179,1.8056,1.8056,1.8057,0,1.748,1.7551,1.7564,1.7617,1.7645,1.7644,1.7699,1.7728,1.7786,1.7806,1.7791,1.7895,1.7926,1.8006,1.8026,1.8049,1.8063,1.8043,1.8131,1.8139,1.8146,1.8173,1.8184,1.8058,1.8058,1.8058,1.8058,0,1.7582,1.7632,1.7671,1.7725,1.7758,1.7812,1.7833,1.7866,1.7871,1.7889,1.7957,1.7993,1.8046,1.8067,1.8073,1.8147,1.8138,1.8127,1.81,1.8158,1.8183,1.8194,1.8061,1.806,1.806,1.8059,0,0,1.7669,1.7728,1.7742,1.7765,1.7814,1.7853,1.7906,1.7957,1.7983,1.8024,1.8068,1.8139,1.8128,1.8159,1.8168,1.8204,1.8264,1.8188,1.819,1.8199,1.8346,1.8353,1.8364,1.8263,1.8265,1.8267,1.8342,0,1.7745,1.7838,1.785,1.7933,1.7978,1.7977,1.8024,1.8058,1.8077,1.8119,1.814,1.8189,1.8173,1.8191,1.8226,1.8249,1.8294,1.8245,1.8304,1.8306,1.829,1.8378,1.8385,1.8454,1.8352,1.8354,1.8355,0,1.7846,1.7886,1.7973,1.8013,1.8032,1.8074,1.812,1.816,1.8199,1.8211,1.8244,1.8248,1.8303,1.8275,1.8351,1.8317,1.8342,1.8358,1.8361,1.8365,1.8333,1.8383,1.8477,1.8487,1.8371,1.837,1.8369,0,1.7897,1.7974,1.8035,1.8055,1.8104,1.8133,1.8155,1.8192,1.8221,1.8262,1.8281,1.8329,1.8355,1.8392,1.8409,1.8387,1.8483,1.8457,1.8493,1.8492,1.8512,1.851,1.8609,1.8532,1.8531,1.8531,1.8531,0,1.7979,1.8032,1.8058,1.8095,1.8154,1.8168,1.8226,1.8247,1.828,1.8321,1.8325,1.8364,1.8385,1.8427,1.8442,1.8501,1.8513,1.8523,1.8526,1.8522,1.852,1.8537,1.8532,1.8534,1.8533,1.8533,1.8532,0,1.8046,1.8066,1.8132,1.8172,1.8184,1.8225,1.826,1.8296,1.8314,1.8366,1.8379,1.8408,1.8458,1.8479,1.8541,1.855,1.8617,1.8618,1.8603,1.8604,1.8638,1.8634,1.875,1.8765,1.8679,1.868,1.8681,0,1.8096,1.8136,1.818,1.8207,1.823,1.8274,1.8303,1.8319,1.835,1.8396,1.8427,1.8476,1.8516,1.8595,1.8622,1.8669,1.8669,1.8706,1.8676,1.867,1.8667,1.8663,1.8667,1.8712,1.8712,1.8713,1.8714,0,1.8182,1.819,1.8231,1.8275,1.8309,1.8346,1.8381,1.8403,1.8425,1.8459,1.8508,1.8539,1.8601,1.8649,1.8697,1.8721,1.872,1.8723,1.8734,1.8729,1.8718,1.8722,1.8616,1.872,1.8719,1.8719,1.8719,1.8718,1.8241,1.8275,1.8311,1.8357,1.8384,1.8417,1.8452,1.8474,1.8516,1.8566,1.8573,1.8626,1.8663,1.8727,1.8752,1.8794,1.8785,1.88,1.8804,1.8807,1.8808,1.8712,1.8803,1.8803,1.8803,1.8803,1.8803,0,1.8325,1.8348,1.8389,1.8438,1.8473,1.8469,1.8508,1.8538,1.8584,1.8618,1.8657,1.8713,1.876,1.879,1.8837,1.8864,1.8865,1.8876,1.8873,1.8878,1.8815,1.88,1.8874,1.8874,1.8874,1.8874,1.8874,1.8874,1.8373,1.843,1.8442,1.8513,1.8536,1.8587,1.8609,1.8638,1.8665,1.8728,1.8766,1.8785,1.8817,1.8866,1.8908,1.8916,1.8932,1.8943,1.895,1.889,1.8883,1.8876,1.8861,1.8947,1.8947,1.9009,1.901,1.901]},{"header":{"parameterUnit":"m.s-1","parameterCategory":1,"la1":30.2991,"la2":30.254,"lo1":-89.0895,"lo2":-89.0444,"dy":0.0017,"dx":0.0017,"nx":28,"ny":28,"refTime":"2023-09-07T21:00:00:Z","depth":0,"parameterNumber":3,"parameterNumberName":"V-component_of_WINDS"},"data":[0,0,0,0,0,0,0,0,0,0,0,0,0,0,0,0,0,0,0,0,0,0,0,0,0,0,0,0,0,0,0,0,0,0,0,0,0,0,0,0,0,0,0,0,0,0,0,0,0,0,0,0,0,0,0,0,0,0,4.7261,4.7261,0,4.7236,4.7236,4.7235,4.7208,4.7207,4.7207,4.7207,4.7178,4.7178,4.7178,0,0,0,0,0,0,0,0,0,0,0,0,0,4.7282,4.7282,4.7261,4.7261,4.7261,4.7236,4.7236,4.7235,4.7208,4.7207,4.7207,4.7206,4.7179,4.7178,4.7178,0,0,0,0,0,0,0,0,0,0,0,0,0,4.7266,4.7282,4.7261,4.7244,4.7242,4.7236,4.7236,4.7235,4.7208,4.7207,4.7207,4.7206,4.7179,4.7178,4.7178,4.7186,0,0,4.7176,4.7176,0,0,0,0,0,0,0,0,4.7267,4.7266,4.7247,4.7245,4.7243,4.7224,4.7233,4.7219,4.7208,4.7221,4.7206,4.7206,4.7194,4.7192,4.7189,4.7185,4.7184,4.7176,4.7176,4.7175,4.7175,0,0,0,0,0,0,0,4.7268,4.7267,4.7251,4.7246,4.7244,4.7236,4.7233,4.723,4.7211,4.722,4.7218,4.7215,4.7193,4.7189,4.7188,4.7183,4.7176,4.7175,4.7175,4.7175,4.7181,4.7182,0,0,0,0,0,0,4.7272,4.7268,4.7252,4.725,4.7254,4.7236,4.7233,4.7231,4.7211,4.7207,4.7216,4.7214,4.7191,4.7189,4.7187,4.7193,4.7175,4.7175,4.7174,4.7181,4.7181,4.7182,0,0,0,0,0,0,4.7273,4.7271,4.7253,4.7258,4.7255,4.7237,4.7234,4.7231,4.7227,4.7208,4.7204,4.7216,4.719,4.7188,4.7186,4.7192,4.7174,4.7174,4.718,4.7181,4.7182,4.7207,0,0,0,0,0,0,4.7274,4.7272,4.7276,4.7259,4.7255,4.7254,4.7235,4.7231,4.7227,4.7224,4.7207,4.7204,4.7189,4.7187,4.7185,4.7191,4.7174,4.718,4.7181,4.7181,4.7206,4.7209,4.7211,0,0,0,0,0,4.7275,4.7284,4.7276,4.7274,4.726,4.7254,4.7252,4.7236,4.7227,4.723,4.7217,4.7204,4.7192,4.7187,4.7185,4.719,4.7179,4.718,4.7181,4.7205,4.7208,4.7211,0,0,0,0,0,0,4.7302,4.7282,4.7273,4.7277,4.7268,4.725,4.7253,4.7241,4.7234,4.7231,4.7211,4.7208,4.7208,4.7199,4.7194,4.7196,4.7183,4.7184,4.7202,4.7205,4.7208,4.7209,4.7173,0,0,0,0,0,4.7309,4.7307,4.7289,4.7294,4.729,4.7272,4.7269,4.7258,4.7247,4.7242,4.723,4.7219,4.7212,4.7208,4.7201,4.7205,4.7199,4.7207,4.721,4.7212,4.7213,4.7211,4.7214,4.7186,4.7186,4.7186,0,0,4.7322,4.7311,4.7311,4.7299,4.7291,4.7287,4.7269,4.7267,4.7264,4.7242,4.7239,4.7229,4.7216,4.7216,4.7215,4.7208,4.7219,4.7214,4.7216,4.7215,4.7213,4.7215,4.7218,4.7187,4.7186,4.7186,0,0,4.7345,4.7337,4.734,4.7331,4.7318,4.7306,4.7307,4.729,4.7283,4.728,4.7262,4.7258,4.7248,4.7238,4.7231,4.7248,4.7235,4.7246,4.7261,4.726,4.7262,4.7264,4.7268,4.7269,4.7247,4.7247,4.7247,0,4.7363,4.7359,4.7342,4.7341,4.7335,4.7315,4.7317,4.7309,4.7294,4.729,4.7283,4.7268,4.7258,4.7254,4.7258,4.7254,4.7252,4.7248,4.7263,4.7265,4.7266,4.727,4.7271,4.7249,4.7249,4.7248,4.7248,0,4.738,4.7377,4.7381,4.7367,4.7362,4.7362,4.7344,4.7341,4.7329,4.7318,4.7313,4.73,4.7289,4.7287,4.7276,4.7281,4.7277,4.7267,4.7254,4.727,4.7273,4.7275,4.7251,4.725,4.725,4.7249,0,0,4.7419,4.7396,4.7397,4.739,4.7373,4.737,4.7368,4.7358,4.7354,4.7344,4.7341,4.7332,4.7321,4.7314,4.7301,4.7301,4.7312,4.729,4.7289,4.7293,4.7314,4.7321,4.7323,4.7303,4.7303,4.7304,4.7315,0,4.7438,4.7434,4.7419,4.7419,4.7415,4.7395,4.7393,4.7382,4.737,4.7364,4.7351,4.7344,4.7332,4.7327,4.7325,4.7311,4.7316,4.731,4.7298,4.7298,4.7301,4.7325,4.7333,4.7344,4.7316,4.7316,4.7316,0,4.7459,4.745,4.745,4.7432,4.7429,4.7428,4.7416,4.7411,4.7397,4.7388,4.738,4.7365,4.736,4.7349,4.734,4.7337,4.7331,4.7323,4.7322,4.732,4.7307,4.7321,4.7347,4.7349,4.7318,4.7318,4.7318,0,4.7485,4.7473,4.7471,4.7466,4.7445,4.7444,4.7435,4.7421,4.7415,4.7404,4.7399,4.7388,4.7381,4.7372,4.7354,4.7348,4.7347,4.7334,4.7338,4.7338,4.7338,4.7338,4.7362,4.7336,4.7336,4.7336,4.7336,0,4.7506,4.7506,4.7482,4.7481,4.748,4.7461,4.746,4.745,4.7437,4.7431,4.7414,4.7409,4.7386,4.7378,4.7364,4.7358,4.7356,4.7347,4.7343,4.7348,4.7349,4.7343,4.7341,4.7337,4.7337,4.7336,4.7336,0,4.7534,4.7519,4.7515,4.7495,4.749,4.749,4.7473,4.747,4.7457,4.7451,4.7448,4.7428,4.7417,4.7399,4.7383,4.7373,4.7369,4.7363,4.7374,4.7371,4.7376,4.7375,4.7396,4.7396,4.7372,4.7372,4.7372,0,4.7548,4.7548,4.7528,4.7524,4.7516,4.7509,4.7503,4.7484,4.7478,4.7461,4.7459,4.7448,4.7437,4.7421,4.7404,4.7391,4.7384,4.7392,4.7382,4.7386,4.7382,4.7382,4.7381,4.7394,4.7394,4.7395,4.7395,0,4.7573,4.7565,4.7558,4.7546,4.754,4.753,4.7519,4.7516,4.7494,4.7488,4.7478,4.747,4.7453,4.7441,4.7425,4.7414,4.74,4.7398,4.7398,4.7403,4.7408,4.7403,4.7379,4.7398,4.7397,4.7397,4.7397,4.7397,4.7593,4.7592,4.7577,4.7569,4.7559,4.7549,4.7544,4.7531,4.7522,4.7508,4.7497,4.7487,4.747,4.7448,4.7438,4.7428,4.7422,4.7423,4.7422,4.7422,4.7424,4.7411,4.7426,4.7426,4.7426,4.7425,4.7425,0,4.7616,4.7606,4.7598,4.7584,4.7576,4.7565,4.7552,4.7546,4.7538,4.7524,4.7514,4.7501,4.7489,4.747,4.7456,4.7452,4.7445,4.7449,4.7448,4.7445,4.7431,4.7432,4.7454,4.7454,4.7454,4.7454,4.7454,4.7454,4.7627,4.7623,4.7613,4.7603,4.7592,4.7582,4.7576,4.7566,4.7555,4.7541,4.7531,4.752,4.7503,4.7488,4.7475,4.747,4.7465,4.747,4.7463,4.7449,4.7447,4.7444,4.7445,4.747,4.747,4.7478,4.7478,4.7478]}]]